Location: Roland
(31.1349°N, 85.4372°W)
Time: 05:17:54
(UTC+00:00)

Courier 1B - Pass Details

Date: 27 April 2021
Orbit: 962 x 1209 km, 28.3° (Epoch: 07 May)

Event Time Altitude Azimuth Distance (km) Brightness Sun altitude
Rises 20:09:53 0° 273° (W) 3,734 11.1 51.6°
Reaches altitude 10° 20:12:50 10° 265° (W) 2,751 10.7 51.0°
Maximum altitude 20:18:44 35° 202° (SSW) 1,514 9.5 49.8°
Drops below altitude 10° 20:24:30 10° 138° (SE) 2,681 9.7 48.6°
Sets 20:27:21 0° 130° (SE) 3,627 10.2 48.0°
